TimeCST,TemperatureF,Dew PointF,Humidity,Sea Level PressureIn,VisibilityMPH,Wind Direction,Wind SpeedMPH,Gust SpeedMPH,PrecipitationIn,Events,Conditions,WindDirDegrees,DateUTC
12:15 AM,22.5,19.2,87,30.27,10.0,West,5.8,-,N/A,,Clear,270,2012-11-24 06:15:00
12:35 AM,22.1,19.2,89,30.27,10.0,West,6.9,-,N/A,,Clear,270,2012-11-24 06:35:00
12:55 AM,22.1,18.9,87,30.26,10.0,West,6.9,-,N/A,,Clear,270,2012-11-24 06:55:00
1:15 AM,22.5,19.0,87,30.26,10.0,West,6.9,-,N/A,,Scattered Clouds,270,2012-11-24 07:15:00
1:35 AM,23.9,19.9,85,30.26,10.0,West,8.1,-,N/A,,Mostly Cloudy,280,2012-11-24 07:35:00
1:55 AM,24.8,19.9,82,30.26,10.0,WNW,10.4,-,N/A,,Overcast,290,2012-11-24 07:55:00
2:15 AM,24.8,21.2,86,30.26,10.0,WNW,5.8,-,N/A,,Overcast,300,2012-11-24 08:15:00
2:35 AM,25.0,20.5,83,30.27,10.0,West,8.1,-,N/A,,Overcast,280,2012-11-24 08:35:00
2:55 AM,25.2,20.3,82,30.27,10.0,West,6.9,-,N/A,,Overcast,280,2012-11-24 08:55:00
3:15 AM,25.3,20.3,81,30.26,10.0,WNW,6.9,-,N/A,,Overcast,290,2012-11-24 09:15:00
3:35 AM,25.5,20.3,81,30.26,10.0,WNW,8.1,-,N/A,,Overcast,300,2012-11-24 09:35:00
3:55 AM,25.7,19.8,78,30.26,10.0,WNW,6.9,-,N/A,,Overcast,300,2012-11-24 09:55:00
4:15 AM,25.7,19.4,77,30.26,10.0,NW,9.2,-,N/A,,Overcast,310,2012-11-24 10:15:00
4:35 AM,25.7,19.4,77,30.26,10.0,NW,6.9,-,N/A,,Overcast,310,2012-11-24 10:35:00
4:55 AM,25.7,19.6,78,30.27,10.0,NW,9.2,-,N/A,,Overcast,320,2012-11-24 10:55:00
5:15 AM,25.7,19.2,76,30.26,10.0,NW,8.1,-,N/A,,Overcast,310,2012-11-24 11:15:00
5:35 AM,25.7,19.8,78,30.27,10.0,NW,6.9,-,N/A,,Overcast,310,2012-11-24 11:35:00
5:55 AM,25.7,19.8,78,30.27,10.0,NNW,6.9,-,N/A,,Overcast,340,2012-11-24 11:55:00
6:15 AM,25.7,19.2,76,30.27,10.0,NW,6.9,-,N/A,,Overcast,310,2012-11-24 12:15:00
6:35 AM,25.7,19.2,76,30.27,10.0,NW,6.9,-,N/A,,Overcast,310,2012-11-24 12:35:00
6:55 AM,25.7,19.4,77,30.27,10.0,NW,5.8,-,N/A,,Overcast,320,2012-11-24 12:55:00
7:15 AM,25.7,19.4,77,30.27,10.0,NW,5.8,-,N/A,,Overcast,310,2012-11-24 13:15:00
7:35 AM,26.2,19.8,76,30.28,10.0,NW,5.8,-,N/A,,Overcast,320,2012-11-24 13:35:00
7:55 AM,26.4,19.4,75,30.28,10.0,WNW,6.9,-,N/A,,Overcast,300,2012-11-24 13:55:00
8:15 AM,26.6,19.6,75,30.29,10.0,WNW,5.8,-,N/A,,Overcast,300,2012-11-24 14:15:00
8:35 AM,26.8,19.4,74,30.29,10.0,WNW,4.6,-,N/A,,Overcast,300,2012-11-24 14:35:00
8:55 AM,27.3,19.8,73,30.30,10.0,Calm,Calm,-,N/A,,Overcast,0,2012-11-24 14:55:00
9:15 AM,27.5,20.1,74,30.31,10.0,NNW,4.6,-,N/A,,Overcast,330,2012-11-24 15:15:00
9:35 AM,27.9,19.8,72,30.30,-9999.0,NW,4.6,-,N/A,,Overcast,320,2012-11-24 15:35:00
9:55 AM,28.2,19.8,71,30.31,-9999.0,WNW,4.6,-,N/A,,Overcast,300,2012-11-24 15:55:00
10:15 AM,28.4,19.9,71,30.31,-9999.0,West,6.9,-,N/A,,Overcast,280,2012-11-24 16:15:00
10:35 AM,29.1,20.5,70,30.30,10.0,West,4.6,-,N/A,,Overcast,260,2012-11-24 16:35:00
10:55 AM,29.1,20.1,69,30.30,10.0,NW,4.6,-,N/A,,Overcast,320,2012-11-24 16:55:00
11:15 AM,29.3,20.1,69,30.29,10.0,NW,3.5,-,N/A,,Overcast,310,2012-11-24 17:15:00
11:35 AM,29.3,20.1,69,30.29,10.0,West,4.6,-,N/A,,Overcast,270,2012-11-24 17:35:00
11:55 AM,29.3,19.6,67,30.27,10.0,WNW,3.5,-,N/A,,Overcast,300,2012-11-24 17:55:00
12:15 PM,29.8,20.3,68,30.27,10.0,West,5.8,-,N/A,,Overcast,270,2012-11-24 18:15:00
12:35 PM,30.2,20.5,67,30.26,10.0,WNW,5.8,-,N/A,,Overcast,290,2012-11-24 18:35:00
12:55 PM,30.0,20.5,68,30.25,10.0,WNW,8.1,-,N/A,,Overcast,300,2012-11-24 18:55:00
1:15 PM,30.2,20.1,66,30.24,10.0,WNW,3.5,-,N/A,,Overcast,290,2012-11-24 19:15:00
1:35 PM,30.9,19.8,63,30.24,10.0,West,4.6,-,N/A,,Overcast,280,2012-11-24 19:35:00
1:55 PM,31.1,21.2,67,30.24,10.0,WSW,4.6,-,N/A,,Overcast,240,2012-11-24 19:55:00
2:15 PM,30.2,20.3,67,30.23,10.0,Calm,Calm,-,N/A,,Overcast,0,2012-11-24 20:15:00
2:35 PM,30.2,21.0,69,30.22,10.0,WSW,5.8,-,N/A,,Overcast,250,2012-11-24 20:35:00
2:55 PM,30.4,20.7,67,30.22,10.0,Calm,Calm,-,N/A,,Mostly Cloudy,0,2012-11-24 20:55:00
3:15 PM,29.8,20.5,68,30.21,10.0,Calm,Calm,-,N/A,,Scattered Clouds,0,2012-11-24 21:15:00
3:35 PM,28.8,20.3,71,30.21,10.0,SSW,3.5,-,N/A,,Mostly Cloudy,200,2012-11-24 21:35:00
3:55 PM,28.0,21.0,75,30.21,10.0,SW,3.5,-,N/A,,Scattered Clouds,230,2012-11-24 21:55:00
4:15 PM,27.1,21.2,78,30.20,10.0,Calm,Calm,-,N/A,,Clear,0,2012-11-24 22:15:00
4:35 PM,26.4,21.6,82,30.21,10.0,SW,3.5,-,N/A,,Clear,220,2012-11-24 22:35:00
4:55 PM,25.9,21.4,83,30.21,10.0,SSW,4.6,-,N/A,,Clear,210,2012-11-24 22:55:00
5:15 PM,25.7,21.2,83,30.19,10.0,South,4.6,-,N/A,,Clear,180,2012-11-24 23:15:00
5:35 PM,25.2,21.7,87,30.19,10.0,SSE,4.6,-,N/A,,Clear,160,2012-11-24 23:35:00
5:55 PM,25.7,21.7,85,30.18,10.0,SSE,5.8,-,N/A,,Clear,160,2012-11-24 23:55:00
6:15 PM,25.5,21.7,86,30.17,10.0,SSE,5.8,-,N/A,,Scattered Clouds,160,2012-11-25 00:15:00
6:35 PM,25.7,21.9,86,30.17,10.0,SSE,5.8,-,N/A,,Clear,150,2012-11-25 00:35:00
6:55 PM,25.5,21.7,86,30.17,10.0,SSE,3.5,-,N/A,,Clear,150,2012-11-25 00:55:00
7:15 PM,26.2,22.8,87,30.15,10.0,SSE,4.6,-,N/A,,Clear,150,2012-11-25 01:15:00
7:35 PM,27.0,22.8,84,30.15,10.0,SSE,5.8,-,N/A,,Clear,160,2012-11-25 01:35:00
7:55 PM,27.3,22.8,83,30.14,10.0,SSE,5.8,-,N/A,,Clear,150,2012-11-25 01:55:00
8:15 PM,27.5,22.8,83,30.14,10.0,SSE,6.9,-,N/A,,Clear,160,2012-11-25 02:15:00
8:35 PM,27.5,23.0,83,30.13,10.0,SSE,6.9,-,N/A,,Clear,160,2012-11-25 02:35:00
8:55 PM,27.9,23.0,82,30.12,10.0,SSE,8.1,-,N/A,,Clear,160,2012-11-25 02:55:00
9:15 PM,28.0,23.0,81,30.10,10.0,SSE,6.9,-,N/A,,Clear,150,2012-11-25 03:15:00
9:35 PM,28.0,23.2,82,30.09,10.0,SSE,8.1,-,N/A,,Clear,150,2012-11-25 03:35:00
9:55 PM,28.2,23.4,82,30.08,10.0,SSE,10.4,-,N/A,,Clear,150,2012-11-25 03:55:00
10:15 PM,28.2,23.5,83,30.08,10.0,SSE,8.1,-,N/A,,Clear,160,2012-11-25 04:15:00
10:35 PM,28.4,23.7,83,30.08,-9999.0,South,8.1,-,N/A,,Unknown,170,2012-11-25 04:35:00
10:55 PM,28.6,23.9,83,30.09,-9999.0,South,8.1,-,N/A,,Unknown,180,2012-11-25 04:55:00
11:15 PM,28.9,23.9,81,30.08,-9999.0,South,9.2,-,N/A,,Clear,180,2012-11-25 05:15:00
11:35 PM,28.9,23.9,81,30.08,-9999.0,South,6.9,-,N/A,,Clear,180,2012-11-25 05:35:00
11:55 PM,29.1,24.6,83,30.07,-9999.0,South,8.1,-,N/A,,Clear,170,2012-11-25 05:55:00